METEOR 2-11 DEB, 60008

Orbit data source: Space-Track

METEOR 2-11 DEB, 60008 is space debris in LEO originally from a launch on Thu, 05 Jul 1984 UTC launched from the Plesetsk Missile And Space Complex (PKMTR). Debris objects in space refer to the collection of defunct objects orbiting the Earth. Examples of debris include non-operational satellites, rocket bodies, and fragments generated from explosions, collisions, or faulty payload assembly.

Loading next visibility...
Identifier
60008, 1984-072AD
Orbit
LEO
Country
Flag of CISCIS
Related business
Manufacturer
Unknown
Mission
Spacecraft
Bus & Motor
Unknown
Mass
Unknown
Launch date (UTC)
1984-07-05 (41 years ago)
Launch vehicle
Unknown
Launch site
Plesetsk Missile And Space Complex (PKMTR)
Object type
Payload
Rocket body
Debris
Shape & HBR
Unknown
Radar Cross Section
Small (<0.1 m²)

Expand to show TLE details & history
Last TLE update: 6 days ago

TLE from 6 days ago
0 METEOR 2-11 DEB
1 60008U 84072AD  25255.15606059  .00002892  00000-0  17332-2 0  9995
2 60008  82.5127 192.9810 0035412 301.3833  58.3877 14.06413866595069
Epoch: 2025-09-12T03:44Z
TLE epoch observation values (Epoch: 2025-09-12T03:44:43.634Z)
Latitude
-0.00002°
Longitude
145.39137°
Altitude
861.208 km
Speed
7.429 km/s
True Right ascension
12h 51m 55s
True Declination
0° 00' 00"
Sunlit
Object was in daylight at epoch
Visualization orbit readout
Latitude
Unknown
Longitude
Unknown
Altitude
Unknown
Speed
Unknown
Apparent Right ascension
Unknown
Apparent Declination
Unknown
Sunlit
N/A
Visualization observer readout
Local Sidereal Time
03:23:20
Azimuth
Unknown
Elevation
Unknown
Doppler factor
Unknown
Orbital elements
Apogee altitude
894.455 km
Perigee altitude
843.129 km
Semi-major axis
7,246.929 km
Eccentricity
0.00354
Inclination
82.5127°
RAAN
192.981°
Arg. of periapsis
301.3833°
True anomaly
58.73408°
Mean anomaly
58.3877°
Eccentric anomaly
58.56081°
Mean motion
3.51813 °/min
Orbital period
102.33 mins
BSTAR
0.0017332
Loading maneuver chart data...
Computing Atmospheric mass density...
Loading historical data...
Loading historical data...
Loading historical data...
Loading historical data...
Loading historical data...
Loading historical data...
Loading historical data...

Documentation

Showing up to 5 results
|